Regional Weather Roundup
Issued by NWS Spokane, WA

Home | Current Version | Previous Version | Text Only | Print | Product List | Glossary On
Versions: 1 2 3 4 5 6 7 8 9 10 11 12 13 14 15 16 17 18 19 20 21 22 23 24 25 26 27 28 29 30 31 32 33 34 35 36 37 38 39 40 41 42 43 44 45 46 47 48 49 50
056
NZUS01 KOTX 271525
RWROTX

Eastern Washington/Northern Idaho Roundup
National Weather Service, Spokane WA
800 AM PDT TUE SEP 27 2016

Note: "fair" indicated few or no clouds below 12,000 feet with no
significant weather and/or obstructions to visibility.

...Northeast Washington and Northern Idaho Panhandle...

CITY           SKY/WX    TMP DP  RH WIND       PRES   REMARKS
Spokane Intl   MOSUNNY   56  41  57 S9        30.04R
Spokane Downto SUNNY     55  48  77 CALM      30.05R
Coeur d Alene  SUNNY     57  51  80 S6        30.06R
Deer Park      SUNNY     50  45  83 E3        30.05R
Sandpoint      SUNNY     50  50 100 CALM      30.05R
Bonners Ferry  FAIR      54  46  76 CALM      30.04R

...Southeast Washington and southern Idaho Panhandle...

CITY           SKY/WX    TMP DP  RH WIND       PRES   REMARKS
Walla Walla    SUNNY     66  47  50 CALM      30.04R
Pullman/Moscow SUNNY     58  44  60 SW3       30.10R HAZE
Lewiston       SUNNY     60  46  59 CALM      30.05R
Lowell           N/A     49  47  93 N5        30.15R
Grangeville    FAIR      57  43  58 CALM      30.13R

...Columbia Basin...

CITY           SKY/WX    TMP DP  RH WIND       PRES   REMARKS
Ephrata        SUNNY     56  46  69 S5        30.01R
Moses Lake     SUNNY     54  44  69 CALM      30.02R
Pasco          SUNNY     54  49  83 NW3       30.03R
Richland       SUNNY     60  54  80 CALM      30.03R
Hermiston      SUNNY     59  49  69 CALM      30.03R
Pendleton      SUNNY     63  45  51 S5        30.06R

...East Slopes Cascades...

CITY           SKY/WX    TMP DP  RH WIND       PRES   REMARKS
The Dalles     CLEAR     66  55  67 NW16      30.06R
Yakima         CLEAR     59  50  72 SW5       30.05R
Ellensburg     CLEAR     63  49  60 NW16      30.08R
Stampede Pass  CLOUDY    49  47  93 VRB3      30.17S
Wenatchee      MOSUNNY   65  49  56 SE3       30.03R
Omak           PTSUNNY   57  45  64 CALM      30.02R
Chelan           N/A     61  46  59 MISG        N/A
Sunnyside      SUNNY     48  46  92 CALM      30.03S

...Southern British Columbia...

CITY           SKY/WX    TMP DP  RH WIND       PRES   REMARKS
Penticton      MOCLDY    59  50  72 N7        30.06R
Castlegar      PTSUNNY   52  50  93 S3        30.04R
Cranbrook      MOSUNNY   52  46  82 VRB2      30.00S
Osoyoos          N/A     61  54  77 SW1         N/A
Creston          N/A     55  46  71 E7          N/A

...Western Montana...

CITY           SKY/WX    TMP DP  RH WIND       PRES   REMARKS
Kalispell      SUNNY     47  44  90 CALM      30.07S
Libby            N/A     48  45  87 CALM      30.05S
Missoula       SUNNY     48  45  89 CALM      30.16S

...Neighboring Cities...

CITY           SKY/WX    TMP DP  RH WIND       PRES   REMARKS
Seattle        CLOUDY    60  56  86 N7        30.17S
Portland       MOCLDY    65  57  75 NW6       30.15R
Boise          SUNNY     60  42  51 SE6       30.12R
Great Falls    SUNNY     63  42  46 S15       30.04S
Calgary        MOSUNNY   50  43  76 CALM      29.90R



USA.gov is the U.S. government's official web portal to all federal, state and local government web resources and services.